World > North America > United States > Missouri > Sturgeon

Sturgeon, MO Hourly Weather Conditions

Feedback E-mail the Weather

Quick WX

Sturgeon, MO Weather Maps

°F °C°F °C
Sturgeon Weather Map
UTC Time: 1/28/2023, 19:08
Your Time:

Sturgeon, MO Regional Weather

Expires:202301282000;;396352
ASUS43 KLSX 281907
RWRMO 

WEATHER SUMMARY FOR MISSOURI
NATIONAL WEATHER SERVICE SPRINGFIELD MO
100 PM CST SAT JAN 28 2023

NOTE: "FAIR" INDICATES FEW OR NO CLOUDS BELOW 12,000 FEET WITH NO
       SIGNIFICANT WEATHER AND/OR OBSTRUCTIONS TO VISIBILITY.
       CURRENT SKY AND/OR WEATHER CONDITIONS ARE NOT AVAILABLE FOR
       CHILLICOTHE AND FARMINGTON.


MOZ032>034-039>042-045>050-055>058-069>072-282000-
...CENTRAL MISSOURI...  
  
CITY           SKY/WX    TMP DP  RH WIND       PRES   REMARKS
COLUMBIA       PTSUNNY   58  39  49 S18G26    29.90F                  
JEFFERSON CITY MOSUNNY   60  39  45 S15G25    29.91F                  
ROLLA          MOSUNNY   55  40  56 SW20G30   29.95F                  
SEDALIA        CLOUDY    53  39  59 S13G24    29.89F                  
WHITEMAN AFB   MOSUNNY   52  41  68 SW18      29.86F                  
WARRENSBURG    CLOUDY    52  37  58 S14G22    29.88F                  
OSAGE BEACH    CLOUDY    56  40  55 SW21G30     N/A                   
               
$$

SKY/WX - Weather  TMP - Temperature  DP - Dew Point  RH - Humidity
WIND - Wind Direction/Speed PRES - Barometric Pressure VSB - Visibility
WCI - Wind Chill Index E13G22 Wind - East Wind 13 mph/Gusts of 22 mph

Trending Headlines

Trending Entertainment Headlines

Sturgeon Radar Loop

Use the map search tool if you want to place a location marker on the radar map...

Sturgeon Quick Facts

National Two Day Weather Forecast


E-mail the Sturgeon Weather Forecast

Voice your opinion or tell us about page issues...